Regional Weather Roundup
Issued by NWS

Home | Current Version | Previous Version | Text Only | Print | Product List | Glossary On
Versions: 1 2 3 4 5 6 7 8 9 10 11 12 13 14 15 16 17 18 19 20 21 22 23 24 25 26 27 28 29 30 31 32 33 34 35 36 37 38 39 40 41 42 43 44 45 46 47 48 49 50
000
ASUS43 KTOP 070008
RWRKS

WEATHER ROUNDUP FOR KANSAS
NATIONAL WEATHER SERVICE GOODLAND KS
700 PM CDT MON JUL 06 2015

NOTE:  "FAIR" INDICATES FEW OR NO CLOUDS BELOW 12,000 FEET WITH NO
SIGNIFICANT WEATHER AND/OR OBSTRUCTIONS TO VISIBILITY.

KSZ001>006-013>018-027>032-041>047-070100-
NORTHWEST KANSAS

CITY           SKY/WX    TMP DP  RH WIND       PRES   REMARKS
GOODLAND       CLOUDY    71  55  56 N21G28    30.12S HAZE
6HR MIN TEMP:  65; 6HR MAX TEMP:  74;

HAYS           CLOUDY    77  57  50 N23       29.97R
HILL CITY      MOSUNNY   79  52  38 N23G35    30.02R HAZE
6HR MIN TEMP:  72; 6HR MAX TEMP:  81;

RUSSELL        MOSUNNY   75  64  68 NE23G29   29.94R
6HR MIN TEMP:  72; 6HR MAX TEMP:  77; 6HR PCP:  0.01;

$$

KSZ061>065-074>080-084>089-070100-
SOUTHWEST KANSAS

CITY           SKY/WX    TMP DP  RH WIND       PRES   REMARKS
DODGE CITY     CLOUDY    71  61  70 N20G32    29.98R
6HR MIN TEMP:  70; 6HR MAX TEMP:  79;

ELKHART          N/A     71  54  55 N15         N/A
GARDEN CITY    CLOUDY    73  61  65 N21       30.01S
6HR MIN TEMP:  70; 6HR MAX TEMP:  76; 6HR PCP:  0.01;

GREAT BEND     PTSUNNY   73  64  73 N22       29.97R
LIBERAL        CLOUDY    73  61  64 N23       30.04R
PRATT          CLOUDY    73  64  73 N21G28    29.95R
$$

KSZ066>073-081>083-090>101-070100-
SOUTHEAST KANSAS

CITY           SKY/WX    TMP DP  RH WIND       PRES   REMARKS
CHANUTE        CLOUDY    77  68  73 N16G25    29.88R THUNDER
6HR MIN TEMP:  78; 6HR MAX TEMP:  91;

COFFEYVILLE    CLOUDY    85  75  72 S10       29.87R
6HR MIN TEMP:  85; 6HR MAX TEMP:  92;

HUTCHINSON     CLOUDY    74  69  85 N14G26    29.91R
6HR MIN TEMP:  74; 6HR MAX TEMP:  94; 6HR PCP:  0.17;

MEDICINE LODGE   N/A     78  70  76 N23G33    29.87R
NEWTON         CLOUDY    72  66  83 NE9       29.92R
PARSONS        CLOUDY    84  75  74 S7        29.88R
6HR MIN TEMP:  84; 6HR MAX TEMP:  91;

WICHITA INTL   LGT RAIN  72  69  90 E5        29.87R
6HR MIN TEMP:  72; 6HR MAX TEMP:  96; 6HR PCP:  2.44;

WICHITA JABRA  LGT RAIN  72  72 100 N9        29.88R
6HR MIN TEMP:  71; 6HR MAX TEMP:  94; 6HR PCP:  3.28;

WICHITA MCCONL LGT RAIN  70  70 100 N3        29.90R
WINFIELD       TSTM      70  69  97 S7        29.88F FOG
6HR MIN TEMP:  69; 6HR MAX TEMP:  96; 6HR PCP:  0.64;

$$

KSZ007>012-019>026-033>040-048>060-102>105-070100-
NORTHEAST KANSAS

CITY           SKY/WX    TMP DP  RH WIND       PRES   REMARKS
CONCORDIA      CLOUDY    73  66  78 NE16      29.96R
6HR MIN TEMP:  71; 6HR MAX TEMP:  74; 6HR PCP:  0.08;

EMPORIA        TSTM      70  69  97 SE5       29.89F FOG
6HR MIN TEMP:  70; 6HR MAX TEMP:  93; 6HR PCP:  1.26;

LAWRENCE       RAIN      72  71  97 SE6       29.86F FOG
6HR MIN TEMP:  70; 6HR MAX TEMP:  93; 6HR PCP:  1.83;

MANHATTAN      LGT RAIN  74  71  91 N13       29.90R
6HR MIN TEMP:  74; 6HR MAX TEMP:  93; 6HR PCP:  0.97;

MARYSVILLE     CLOUDY    72  70  94 N17G30    29.91R
OLATHE IND     CLOUDY    72  71  97 NW10      29.88S FOG
6HR MIN TEMP:  72; 6HR MAX TEMP:  91; 6HR PCP:  1.21;

OLATHE EXE     RAIN      71  70  96 W6        29.87S FOG
6HR MIN TEMP:  70; 6HR MAX TEMP:  88; 6HR PCP:  1.33;

SALINA         CLOUDY    74  68  81 N16       29.92R
6HR MIN TEMP:  74; 6HR MAX TEMP:  91; 6HR PCP:  0.22;

TOPEKA BILLARD LGT RAIN  72  71  97 E3        29.88R
6HR MIN TEMP:  71; 6HR MAX TEMP:  92; 6HR PCP:  1.45;

TOPEKA FORBES  LGT RAIN  73  70  90 CALM      29.89S
6HR MIN TEMP:  73; 6HR MAX TEMP:  93; 6HR PCP:  1.06;

$$


USA.gov is the U.S. government's official web portal to all federal, state and local government web resources and services.